星链-5561 (STARLINK-5561 )

导读

STARLINK-5561是美国太空探索技术公司星链互联网卫星计划中的一员,于2023年4月27日发射入轨,属于星链组网的第二代卫星。它运行在近地轨道,旨在为全球提供高速低延迟的互联网覆盖服务,尤其是为偏远地区、海上和航空用户提供网络接入,是星链大规模组网建设的重要组成部分,助力构建全球卫星互联网星座。

基本信息
目录编号:
56337
目录名称:
STARLINK-5561
国际标识:
2023-058W
轨道中心:
EARTH
卫星名称:
星链-5561
卫星全名:
星链-5561 (STARLINK-5561 )
卫星状态:
在轨 (已飞行1234 天)
发射日期:
2023-04-27 UTC
国别 :
美国 (US)
星等 :
--
该卫星已列入 空间交会检测服务 Space Conjunction Data Service (SCDS) ,当前飞行风险评估等级: 无高风险
轨道信息
数据来源 国际轨道数据
星历时间: 2026-09-12T08:00:02+0800
11小时前
查看轨道信息
半长轴: 6912.656km
偏心率: 0.0001638
轨道倾角: 97.284°
近地点辐角 91.168°
升交点赤经 249.268°
平近点角 79.924°
近地点: 533.386km
远地点: 535.652km
周期: 95.329分钟
每日圈数: 15.10551
详细信息
固有亮度:
5
最大亮度:
2.5
卫星平台:
Starlink v1.5
覆盖范围:
全球
运营商:
太空探索技术公司
运营商所在国:
美国
制造商(研发单位):
太空探索技术公司
制造商所在国:
美国
使用方式:
暂无
卫星简介
星链(Starlink)计划是由太空探索技术公司(SpaceX)提出的一个巨型低轨卫星互联网星座项目,计划在2019年至2024年间在太空搭建由约1.2万颗卫星组成的“星链”网络,其中1584颗将部署在地球上空550千米处的近地轨道,并从2020年开始工作。该卫星仍在工作。
2D轨道图
3D轨道图
轨道高度分析图
轨道倾角分析图
轨道综合分析图
查看轨道综合分析图
交会数据列表
事件ID 空间交会对象 最接近时刻(TCA) 交会距离 交会风险概率(CRP) 交会风险指数(CRI) 操作
CDM_260913-134005-633706-879421
OBJECT C (68794)
2026-09-13T
13:40:20+0000
1.941 km
极远距离
3.07311E-6 低风险 0.45
CDM_260912-151905-633706-875323
SL-4 R/B (68753)
2026-09-12T
15:19:45+0000
2.139 km
极远距离
2.437706E-6 低风险 0.43
CDM_260913-195905-384705-633721
2026-09-13T
19:59:43+0000
2.326 km
极远距离
1.646354E-6 低风险 0.39
与全量物体交会距离演化趋势
与全量物体交会风险概率演化趋势